Wind_Speed
19 20 20 18 19 18 16 15 16 16 17 17 17 16 15 16 17 18 17 16 13 11 9 8 8 8 8 6 4 3 3 3 6 9 10 11 10 11 10 12 16 11 13
22 20 20 19 18 19 17 16 16 16 16 16 15 14 14 14 16 16 14 13 11 8 7 7 7 7 5 7 4 4 3 2 4 7 8 8 7 6 8 9 10 13 12
22 20 19 19 17 17 16 16 17 15 15 15 14 13 12 13 14 13 11 9 7 5 6 4 5 3 1 4 3 2 4 3 5 5 8 8 11 15 6 7 7 9 11
22 20 20 18 17 17 16 15 15 15 15 13 11 10 9 9 9 9 8 7 7 6 6 4 3 3 2 3 1 2 4 7 7 7 7 9 9 20 12 10 9 8 9
21 21 21 19 18 18 17 15 12 12 14 12 9 8 8 9 8 6 5 5 6 7 7 7 6 5 5 4 2 4 7 7 3 3 3 7 11 19 23 23 14 10 11
20 18 22 22 21 22 14 17 14 12 14 13 11 9 7 8 8 5 5 6 6 8 6 6 4 4 4 3 2 7 10 2 5 3 3 8 11 14 19 35 21 21 12
20 19 22 23 24 19 18 16 13 11 17 13 9 9 10 7 5 8 4 4 6 7 6 5 5 4 3 3 4 9 9 4 5 3 2 7 12 14 13 38 26 31 15
20 20 20 20 20 18 23 15 11 14 17 15 11 13 11 10 11 6 8 5 6 6 6 5 5 4 4 4 7 8 7 5 7 5 6 7 11 12 13 36 32 33 20
18 21 19 20 19 17 20 15 12 14 17 21 14 12 10 9 7 8 8 6 6 5 6 5 5 4 3 4 6 7 7 6 7 7 7 6 9 9 6 25 39 39 28
18 15 17 19 19 17 17 13 8 18 18 17 13 11 12 8 6 10 6 6 6 6 6 5 5 2 4 5 7 7 7 7 7 6 5 9 9 9 9 20 32 39 32
17 17 13 15 16 14 14 12 12 18 16 15 13 13 11 7 7 7 6 7 7 7 6 6 5 4 5 4 7 8 7 4 4 5 5 8 10 13 11 10 17 35 36
18 17 16 14 14 15 16 10 19 18 18 16 15 13 11 7 10 10 8 7 8 7 6 6 4 4 3 3 6 7 2 5 1 4 5 9 11 16 12 16 18 22 28
16 17 14 15 15 15 12 13 16 16 16 14 16 14 11 7 12 7 5 4 3 6 2 4 4 4 2 2 4 4 4 4 2 3 7 7 10 13 17 15 15 20 23
16 15 13 15 17 14 11 12 15 16 14 15 17 15 13 9 9 9 8 7 7 4 4 2 3 3 4 4 2 1 1 4 2 2 4 5 9 12 18 17 17 18 19
15 15 15 14 15 17 13 14 17 15 15 15 16 17 13 12 11 9 8 7 8 6 4 3 3 2 3 2 1 1 2 3 3 4 3 5 9 13 18 17 16 16 17
13 14 15 14 13 13 10 13 15 15 14 14 14 15 13 15 10 8 7 6 6 4 5 4 3 1 1 3 1 3 2 2 3 6 4 6 9 11 14 15 16 17 16
12 13 15 14 13 12 10 11 12 13 12 14 13 14 13 17 13 11 7 7 4 4 4 2 2 2 2 3 1 2 3 4 4 7 8 7 9 10 11 13 13 12 12
13 14 14 14 14 13 12 11 12 10 14 10 11 13 15 17 13 11 7 5 5 3 3 1 1 1 3 4 3 4 5 5 6 8 9 8 8 8 9 10 12 12 12
14 13 13 14 15 13 12 11 11 11 12 15 15 15 18 17 14 12 7 6 5 4 3 2 2 3 3 4 4 4 6 5 6 6 8 10 10 9 6 10 11 12 12
13 13 13 13 14 12 12 13 11 11 11 11 11 16 18 16 15 14 7 7 6 5 3 2 1 3 2 1 2 5 7 6 7 6 7 8 8 10 11 7 9 10 12
15 15 15 16 15 13 14 14 12 11 12 13 11 15 17 15 16 14 9 7 9 7 5 3 1 3 3 3 4 3 4 5 6 6 6 7 7 8 9 10 9 8 9
17 16 16 15 15 15 14 13 13 12 12 15 18 17 15 15 14 13 12 8 8 7 4 1 3 1 2 4 2 2 5 3 5 6 7 7 7 7 9 9 10 11 10
17 18 17 16 15 15 14 13 13 13 13 16 16 16 14 15 14 13 11 9 9 6 4 4 1 2 1 3 4 0 2 1 4 6 7 7 9 8 8 10 10 10 11
18 17 17 16 15 15 16 15 16 17 16 17 17 14 13 16 15 12 12 9 8 5 6 5 3 3 3 1 3 1 2 2 2 5 6 7 8 8 9 10 11 11 11
16 17 17 17 17 16 17 16 17 18 17 16 15 15 13 14 15 13 14 12 8 4 4 7 4 4 1 1 1 1 1 2 1 2 4 5 8 10 8 9 10 11 12
16 17 17 18 18 17 18 19 19 20 18 17 19 17 14 12 13 14 16 15 11 8 6 4 5 3 3 2 2 2 2 2 2 1 1 1 3 4 6 8 10 11 11
Wind_Direction
160 163 155 152 155 154 156 152 147 149 150 147 147 149 147 142 141 143 141 142 147 146 146 134 123 111 93 66 74 97 124 142 125 116 101 99 99 107 106 106 91 112 108
156 158 158 158 156 160 159 158 150 148 150 153 152 150 149 150 147 151 149 148 147 145 146 145 140 130 87 49 61 93 127 163 139 151 147 125 108 82 115 120 127 129 123
152 155 158 158 159 156 157 158 160 153 149 154 154 147 150 151 156 158 163 175 182 184 183 176 179 160 51 25 53 74 102 115 122 150 177 203 218 240 179 157 142 143 142
151 156 154 156 154 154 158 153 163 171 169 160 152 155 144 145 145 158 168 183 198 208 212 212 214 238 276 317 86 128 105 110 104 112 141 174 199 204 196 179 176 160 150
156 153 159 154 155 151 156 157 162 171 175 181 172 180 156 156 166 170 177 197 214 223 232 243 254 262 265 253 191 178 145 116 36 311 250 195 179 202 209 198 192 189 160
156 154 162 159 162 158 164 160 163 178 178 180 193 193 188 180 192 182 206 220 221 227 232 238 239 247 239 239 176 170 170 277 216 299 279 225 199 211 209 204 195 204 177
156 162 165 172 170 163 170 164 174 214 193 190 200 180 211 215 219 229 226 227 218 221 230 228 232 225 220 214 239 217 231 233 230 266 255 207 207 206 201 195 193 197 186
164 163 178 176 182 202 185 176 210 200 211 198 197 209 206 224 233 239 211 205 206 214 222 221 223 218 194 212 233 246 257 243 245 258 205 181 213 216 222 195 197 195 190
166 174 177 177 186 187 162 206 236 195 187 201 190 213 221 216 229 241 201 200 209 213 220 217 218 197 241 240 273 276 276 271 264 236 188 192 236 217 200 188 198 200 198
169 172 178 182 194 196 201 222 212 189 191 198 203 207 194 220 201 181 200 204 215 220 219 209 206 230 265 289 283 278 274 289 268 214 184 211 223 196 171 179 194 198 194
167 174 179 187 193 197 196 192 191 171 183 196 207 206 205 202 208 187 222 216 208 215 200 206 217 248 292 305 304 297 284 279 266 210 186 234 201 181 166 160 166 197 201
175 171 181 183 187 179 189 179 171 187 191 199 205 206 208 211 193 184 219 221 217 208 205 230 235 258 302 278 311 315 313 246 169 197 211 226 191 186 178 174 170 175 193
178 174 180 180 182 176 188 182 186 188 192 210 204 205 212 229 198 203 225 219 217 263 225 292 334 337 296 295 295 297 272 197 163 147 230 193 182 187 185 187 185 188 192
178 181 178 177 174 183 184 189 189 192 203 208 208 213 222 225 204 196 198 205 223 199 219 241 274 289 326 333 309 284 160 153 136 142 215 168 185 171 175 184 184 196 200
185 185 185 186 186 185 192 196 198 210 218 214 216 225 226 209 184 195 207 198 214 204 209 248 280 305 335 324 257 189 125 171 179 139 210 160 167 175 171 179 190 197 204
187 186 186 189 189 189 206 210 210 214 211 210 208 221 213 203 190 195 201 203 215 227 216 214 268 270 296 347 303 158 148 135 151 152 171 154 160 168 176 190 199 203 208
191 186 191 189 193 198 206 211 214 215 219 223 207 209 202 196 191 186 193 198 199 227 215 275 300 334 356 14 151 133 131 129 140 141 137 151 158 171 174 182 192 200 211
190 194 191 193 201 202 203 215 219 204 222 200 204 208 195 192 187 195 199 206 200 214 228 348 261 332 28 72 103 123 142 148 142 140 142 148 153 173 178 185 193 198 203
194 195 192 199 206 197 206 217 217 216 215 215 207 201 197 191 189 188 194 208 196 203 203 235 25 41 37 80 85 122 143 155 138 137 154 149 160 161 170 217 195 195 196
199 197 200 202 207 207 212 217 211 212 204 204 192 188 194 188 192 192 196 193 189 195 212 231 97 8 31 62 98 127 146 157 154 153 158 149 161 166 162 179 196 194 197
202 199 203 206 211 213 215 210 196 200 205 189 188 183 187 186 192 192 191 211 193 185 195 155 356 31 30 32 84 136 153 168 171 168 164 165 175 167 176 175 170 191 207
206 203 205 216 215 211 206 200 194 195 198 197 184 191 190 193 191 195 191 194 195 200 198 152 91 109 59 33 67 168 183 192 190 195 187 182 182 184 186 190 191 192 192
208 206 208 210 216 208 203 192 191 181 184 187 193 193 201 198 200 199 202 193 197 192 245 198 102 108 35 16 25 39 206 105 178 214 207 199 199 193 197 199 201 207 204
210 207 205 204 205 206 200 198 192 188 186 188 189 192 198 204 210 210 204 201 192 206 214 226 232 173 86 352 0 25 52 171 224 162 209 201 200 199 207 214 213 212 214
206 202 201 199 201 201 202 199 200 193 191 188 189 201 191 208 212 212 209 210 210 202 219 190 201 182 315 149 280 1 318 357 299 235 177 191 216 220 226 212 218 217 223
201 198 196 201 207 204 207 204 200 194 191 190 191 196 200 209 209 212 214 220 226 221 227 218 216 245 192 184 205 236 238 307 337 268 292 172 245 211 229 226 217 220 223
Height
1537 1539 1542 1544 1547 1549 1551 1553 1554 1556 1558 1560 1561 1563 1566 1568 1570 1572 1573 1574 1575 1576 1577 1578 1579 1580 1581 1581 1581 1582 1583 1583 1585 1586 1586 1587 1588 1589 1590 1590 1592 1595 1595
1537 1540 1543 1546 1548 1550 1552 1555 1557 1558 1560 1562 1563 1566 1568 1570 1572 1573 1575 1576 1576 1577 1578 1579 1580 1581 1581 1581 1581 1583 1583 1584 1585 1587 1587 1588 1589 1591 1591 1592 1593 1595 1598
1539 1541 1544 1547 1549 1552 1554 1557 1559 1561 1562 1564 1566 1568 1569 1571 1573 1575 1576 1577 1577 1578 1579 1580 1581 1582 1582 1582 1582 1583 1584 1585 1586 1586 1587 1588 1589 1591 1593 1593 1594 1596 1599
1541 1544 1545 1549 1552 1554 1556 1558 1561 1563 1564 1566 1568 1569 1572 1573 1576 1576 1577 1577 1579 1579 1580 1581 1582 1583 1583 1583 1583 1583 1584 1585 1586 1588 1589 1589 1591 1591 1592 1592 1594 1597 1599
1543 1544 1545 1549 1553 1555 1557 1559 1563 1565 1566 1568 1570 1569 1573 1574 1576 1577 1577 1578 1579 1580 1580 1581 1582 1582 1583 1583 1583 1583 1584 1586 1587 1587 1587 1589 1591 1590 1591 1592 1595 1598 1600
1544 1548 1547 1550 1552 1552 1559 1558 1562 1566 1567 1569 1570 1573 1574 1576 1574 1576 1578 1579 1579 1580 1580 1581 1582 1583 1583 1583 1583 1583 1583 1584 1584 1585 1588 1588 1589 1588 1591 1594 1595 1599 1602
1545 1548 1548 1551 1554 1556 1560 1560 1563 1565 1566 1569 1573 1574 1575 1576 1577 1578 1579 1579 1579 1580 1581 1582 1583 1583 1584 1584 1583 1585 1584 1584 1584 1585 1586 1587 1587 1586 1586 1590 1594 1600 1602
1545 1548 1549 1552 1555 1558 1560 1561 1564 1565 1566 1571 1572 1572 1573 1576 1576 1577 1579 1579 1579 1580 1582 1583 1583 1583 1584 1584 1583 1583 1580 1583 1584 1582 1587 1586 1585 1584 1584 1587 1593 1599 1602
1545 1547 1549 1552 1554 1554 1558 1561 1561 1564 1566 1568 1570 1574 1574 1575 1576 1576 1578 1578 1579 1580 1582 1583 1583 1584 1585 1583 1583 1584 1584 1583 1584 1582 1585 1586 1584 1584 1583 1586 1592 1596 1602
1544 1549 1549 1551 1554 1557 1559 1561 1559 1561 1567 1569 1572 1573 1573 1576 1576 1577 1578 1578 1579 1581 1582 1583 1583 1584 1584 1584 1583 1582 1583 1583 1582 1582 1583 1585 1584 1584 1585 1587 1590 1596 1601
1545 1548 1550 1551 1554 1557 1559 1561 1561 1563 1566 1569 1570 1573 1574 1576 1577 1578 1578 1579 1580 1581 1582 1582 1583 1584 1582 1583 1582 1581 1581 1583 1582 1582 1583 1584 1584 1585 1586 1587 1589 1595 1600
1544 1546 1549 1550 1553 1556 1559 1560 1561 1563 1563 1566 1568 1571 1573 1575 1578 1580 1580 1579 1580 1581 1582 1583 1583 1582 1583 1583 1583 1580 1580 1582 1581 1584 1583 1583 1584 1586 1587 1590 1593 1596 1600
1543 1545 1547 1549 1553 1556 1556 1559 1561 1563 1565 1565 1569 1571 1573 1575 1576 1579 1582 1581 1583 1582 1584 1584 1584 1584 1584 1583 1583 1582 1581 1580 1583 1584 1582 1582 1584 1586 1589 1591 1594 1597 1600
1544 1547 1549 1549 1552 1556 1558 1559 1561 1563 1564 1565 1567 1570 1572 1574 1577 1580 1582 1583 1582 1584 1585 1585 1586 1584 1583 1581 1581 1581 1580 1582 1583 1584 1581 1581 1583 1586 1588 1593 1595 1598 1600
1544 1547 1549 1550 1550 1553 1556 1557 1560 1562 1563 1564 1566 1568 1570 1574 1577 1580 1581 1582 1581 1584 1585 1585 1585 1584 1583 1582 1581 1581 1582 1582 1582 1583 1583 1581 1583 1586 1589 1592 1596 1598 1601
1543 1545 1547 1549 1550 1553 1554 1556 1558 1559 1561 1563 1565 1567 1569 1571 1576 1579 1581 1582 1581 1583 1584 1584 1583 1583 1582 1582 1580 1580 1581 1582 1581 1581 1584 1581 1582 1585 1588 1591 1593 1596 1598
1542 1545 1547 1547 1550 1551 1553 1555 1556 1558 1560 1561 1564 1565 1568 1570 1573 1577 1580 1581 1581 1582 1582 1582 1581 1582 1582 1580 1579 1580 1581 1582 1581 1581 1584 1583 1582 1585 1587 1589 1592 1593 1595
1541 1543 1546 1547 1549 1549 1551 1553 1555 1557 1557 1560 1563 1564 1567 1570 1572 1576 1579 1581 1581 1582 1583 1582 1582 1582 1581 1579 1580 1580 1581 1583 1581 1582 1585 1586 1586 1587 1586 1588 1590 1592 1594
1540 1541 1543 1544 1546 1546 1548 1551 1553 1555 1556 1558 1560 1562 1565 1569 1572 1575 1578 1580 1580 1582 1583 1583 1581 1581 1581 1580 1580 1580 1581 1583 1582 1584 1584 1585 1586 1588 1590 1589 1590 1591 1593
1537 1539 1541 1542 1543 1544 1546 1549 1551 1553 1555 1557 1559 1562 1565 1569 1572 1575 1579 1580 1580 1582 1583 1582 1581 1580 1580 1579 1580 1580 1581 1582 1582 1583 1584 1585 1585 1586 1589 1589 1589 1590 1592
1535 1537 1538 1539 1540 1542 1544 1547 1550 1552 1555 1556 1560 1562 1565 1568 1571 1574 1578 1579 1579 1582 1581 1580 1580 1580 1581 1579 1580 1580 1580 1581 1581 1583 1583 1585 1584 1585 1588 1589 1591 1594 1591
1532 1534 1536 1536 1538 1540 1542 1545 1549 1552 1554 1557 1558 1562 1564 1567 1570 1573 1575 1578 1579 1581 1581 1580 1579 1581 1580 1579 1581 1580 1579 1581 1581 1582 1582 1584 1585 1586 1586 1587 1589 1590 1593
1530 1531 1533 1534 1536 1539 1541 1544 1546 1551 1553 1556 1559 1561 1565 1567 1569 1572 1575 1577 1578 1581 1581 1580 1580 1580 1581 1580 1579 1580 1577 1576 1579 1580 1580 1582 1582 1585 1586 1586 1587 1589 1589
1527 1529 1530 1533 1534 1537 1540 1543 1546 1549 1551 1554 1558 1561 1564 1565 1568 1571 1574 1576 1577 1579 1579 1580 1581 1581 1580 1581 1580 1579 1578 1578 1578 1579 1581 1581 1581 1583 1584 1585 1586 1586 1587
1524 1527 1528 1529 1532 1536 1537 1542 1544 1548 1550 1553 1557 1560 1562 1564 1566 1569 1572 1575 1575 1578 1577 1578 1578 1579 1580 1581 1581 1580 1579 1580 1579 1579 1576 1580 1581 1582 1582 1582 1584 1585 1584
1521 1524 1526 1528 1530 1532 1534 1537 1540 1545 1549 1551 1554 1557 1561 1563 1564 1567 1569 1572 1574 1576 1577 1577 1577 1578 1579 1579 1579 1579 1580 1581 1579 1579 1578 1579 1580 1580 1580 1580 1581 1583 1584